TimeEDT,TemperatureF,Dew PointF,Humidity,Sea Level PressureIn,VisibilityMPH,Wind Direction,Wind SpeedMPH,Gust SpeedMPH,PrecipitationIn,Events,Conditions,WindDirDegrees,DateUTC
12:15 AM,39.2,28.4,65,29.81,10.0,SW,13.8,18.4,N/A,,Overcast,230,2012-10-06 04:15:00
12:34 AM,39.2,28.4,65,29.81,10.0,SW,12.7,-,N/A,,Overcast,220,2012-10-06 04:34:00
12:55 AM,39.2,28.4,65,29.80,10.0,SW,11.5,17.3,N/A,,Overcast,220,2012-10-06 04:55:00
1:15 AM,39.2,28.4,65,29.80,10.0,SW,13.8,17.3,N/A,,Overcast,220,2012-10-06 05:15:00
1:34 AM,39.2,28.4,65,29.79,10.0,SW,15.0,21.9,N/A,,Overcast,230,2012-10-06 05:34:00
1:55 AM,39.2,28.4,65,29.79,10.0,SW,15.0,20.7,N/A,,Overcast,230,2012-10-06 05:55:00
2:15 AM,39.2,30.2,70,29.79,10.0,WSW,11.5,-,N/A,,Overcast,240,2012-10-06 06:15:00
2:55 AM,39.2,32.0,75,29.79,10.0,WSW,13.8,-,N/A,,Overcast,250,2012-10-06 06:55:00
3:15 AM,39.2,33.8,81,29.79,10.0,WSW,13.8,18.4,N/A,,Overcast,240,2012-10-06 07:15:00
3:34 AM,37.4,33.8,87,29.79,7.0,SW,11.5,-,N/A,Rain,Light Rain,230,2012-10-06 07:34:00
3:55 AM,37.4,33.8,87,29.79,10.0,SW,9.2,-,N/A,,Scattered Clouds,230,2012-10-06 07:55:00
4:15 AM,37.4,35.6,93,29.79,10.0,SW,9.2,-,N/A,,Scattered Clouds,230,2012-10-06 08:15:00
4:35 AM,37.4,35.6,93,29.79,10.0,WSW,10.4,-,N/A,Rain,Light Rain,240,2012-10-06 08:35:00
4:55 AM,37.4,35.6,93,29.79,10.0,WSW,9.2,-,N/A,,Overcast,240,2012-10-06 08:55:00
5:35 AM,37.4,35.6,93,29.79,10.0,West,12.7,-,N/A,,Mostly Cloudy,260,2012-10-06 09:35:00
5:55 AM,37.4,35.6,93,29.80,10.0,West,8.1,-,N/A,,Overcast,260,2012-10-06 09:55:00
6:14 AM,37.4,35.6,93,29.80,10.0,West,11.5,-,N/A,,Overcast,270,2012-10-06 10:14:00
6:35 AM,37.4,35.6,93,29.81,10.0,West,10.4,18.4,N/A,Rain,Light Rain,280,2012-10-06 10:35:00
6:55 AM,37.4,35.6,93,29.81,7.0,West,13.8,18.4,N/A,Rain,Light Rain,280,2012-10-06 10:55:00
7:14 AM,37.4,35.6,93,29.82,10.0,WNW,9.2,-,N/A,Rain,Light Rain,290,2012-10-06 11:14:00
7:35 AM,37.4,35.6,93,29.83,7.0,West,9.2,-,N/A,Rain,Rain,280,2012-10-06 11:35:00
7:55 AM,35.6,35.6,100,29.84,10.0,West,8.1,-,N/A,Rain,Light Rain,270,2012-10-06 11:55:00
8:15 AM,35.6,35.6,100,29.84,10.0,West,9.2,17.3,N/A,,Overcast,280,2012-10-06 12:15:00
8:35 AM,35.6,33.8,93,29.85,10.0,West,6.9,-,N/A,Rain,Light Rain,280,2012-10-06 12:35:00
8:54 AM,35.6,35.6,100,29.86,3.0,WNW,10.4,16.1,N/A,Rain,Light Rain,290,2012-10-06 12:54:00
9:15 AM,35.6,33.8,93,29.87,5.0,WNW,9.2,-,N/A,Rain,Light Rain,300,2012-10-06 13:15:00
9:35 AM,37.4,35.6,93,29.88,7.0,WNW,10.4,-,N/A,Rain,Light Rain,300,2012-10-06 13:35:00
9:54 AM,37.4,35.6,93,29.89,4.0,WNW,12.7,-,N/A,Rain,Light Rain,290,2012-10-06 13:54:00
10:15 AM,37.4,35.6,93,29.89,10.0,West,9.2,-,N/A,,Overcast,280,2012-10-06 14:15:00
10:34 AM,39.2,37.4,93,29.90,10.0,WNW,9.2,-,N/A,Rain,Light Rain,300,2012-10-06 14:34:00
10:55 AM,41.0,37.4,87,29.91,10.0,NW,12.7,17.3,N/A,,Mostly Cloudy,310,2012-10-06 14:55:00
11:15 AM,39.2,33.8,81,29.91,10.0,NW,6.9,20.7,N/A,,Mostly Cloudy,310,2012-10-06 15:15:00
11:34 AM,41.0,33.8,76,29.92,10.0,NW,10.4,-,N/A,,Mostly Cloudy,310,2012-10-06 15:34:00
11:55 AM,42.8,32.0,66,29.93,10.0,NW,15.0,23.0,N/A,,Mostly Cloudy,320,2012-10-06 15:55:00
12:15 PM,41.0,32.0,70,29.94,10.0,NW,11.5,21.9,N/A,,Mostly Cloudy,310,2012-10-06 16:15:00
12:34 PM,42.8,30.2,61,29.95,10.0,NW,15.0,21.9,N/A,,Mostly Cloudy,320,2012-10-06 16:34:00
12:55 PM,39.2,33.8,81,29.96,3.0,NW,11.5,25.3,N/A,Rain,Rain,320,2012-10-06 16:55:00
1:14 PM,42.8,35.6,76,29.96,10.0,NW,8.1,19.6,N/A,,Mostly Cloudy,320,2012-10-06 17:14:00
1:35 PM,41.0,33.8,76,29.97,7.0,NW,13.8,24.2,N/A,,Mostly Cloudy,320,2012-10-06 17:35:00
1:55 PM,44.6,33.8,66,29.97,10.0,NW,13.8,25.3,N/A,,Mostly Cloudy,310,2012-10-06 17:55:00
2:14 PM,42.8,33.8,70,29.97,10.0,NW,9.2,18.4,N/A,,Mostly Cloudy,310,2012-10-06 18:14:00
2:35 PM,44.6,28.4,53,29.97,10.0,WNW,13.8,24.2,N/A,,Mostly Cloudy,300,2012-10-06 18:35:00
2:54 PM,42.8,32.0,66,29.98,10.0,West,13.8,19.6,N/A,,Mostly Cloudy,280,2012-10-06 18:54:00
3:15 PM,42.8,30.2,61,29.99,10.0,NNW,18.4,29.9,N/A,,Mostly Cloudy,330,2012-10-06 19:15:00
3:35 PM,41.0,35.6,81,30.00,10.0,NW,11.5,17.3,N/A,,Scattered Clouds,310,2012-10-06 19:35:00
3:54 PM,41.0,33.8,76,30.01,10.0,NW,11.5,25.3,N/A,,Mostly Cloudy,310,2012-10-06 19:54:00
4:15 PM,37.4,33.8,87,30.01,7.0,NW,8.1,17.3,N/A,Rain,Light Rain,320,2012-10-06 20:15:00
4:34 PM,39.2,35.6,87,30.02,5.0,NW,11.5,-,N/A,Rain,Light Rain,310,2012-10-06 20:34:00
4:55 PM,39.2,33.8,81,30.02,10.0,NW,9.2,-,N/A,,Mostly Cloudy,320,2012-10-06 20:55:00
5:15 PM,39.2,33.8,81,30.03,10.0,NNW,6.9,-,N/A,,Scattered Clouds,330,2012-10-06 21:15:00
5:34 PM,39.2,30.2,70,30.03,10.0,NW,9.2,19.6,N/A,,Scattered Clouds,320,2012-10-06 21:34:00
5:55 PM,39.2,30.2,70,30.04,10.0,NW,6.9,-,N/A,,Scattered Clouds,320,2012-10-06 21:55:00
6:15 PM,41.0,30.2,65,30.04,10.0,NW,6.9,-,N/A,,Mostly Cloudy,320,2012-10-06 22:15:00
6:34 PM,39.2,30.2,70,30.04,10.0,NNW,8.1,-,N/A,,Scattered Clouds,330,2012-10-06 22:34:00
6:55 PM,39.2,33.8,81,30.05,10.0,North,11.5,23.0,N/A,Rain,Rain,350,2012-10-06 22:55:00
7:14 PM,35.6,32.0,87,30.05,10.0,Calm,Calm,-,N/A,,Scattered Clouds,0,2012-10-06 23:14:00
7:34 PM,37.4,33.8,87,30.06,7.0,NW,4.6,-,N/A,Rain,Light Rain,320,2012-10-06 23:34:00
7:55 PM,35.6,32.0,87,30.07,10.0,WNW,3.5,-,N/A,,Scattered Clouds,290,2012-10-06 23:55:00
8:14 PM,33.8,32.0,93,30.07,10.0,Calm,Calm,-,N/A,,Clear,0,2012-10-07 00:14:00
8:35 PM,30.2,28.4,93,30.08,10.0,WSW,5.8,-,N/A,,Mostly Cloudy,250,2012-10-07 00:35:00
8:55 PM,35.6,33.8,93,30.08,10.0,West,8.1,-,N/A,,Overcast,270,2012-10-07 00:55:00
9:14 PM,33.8,30.2,87,30.08,10.0,WSW,4.6,-,N/A,,Mostly Cloudy,250,2012-10-07 01:14:00
9:35 PM,30.2,28.4,93,30.08,10.0,West,4.6,-,N/A,,Clear,260,2012-10-07 01:35:00
9:55 PM,35.6,30.2,81,30.08,10.0,WNW,6.9,-,N/A,,Scattered Clouds,290,2012-10-07 01:55:00
10:14 PM,33.8,30.2,87,30.08,10.0,WSW,9.2,-,N/A,,Mostly Cloudy,250,2012-10-07 02:14:00
10:35 PM,33.8,30.2,87,30.09,10.0,West,6.9,-,N/A,,Mostly Cloudy,260,2012-10-07 02:35:00
10:54 PM,33.8,30.2,87,30.09,10.0,WSW,4.6,-,N/A,,Overcast,250,2012-10-07 02:54:00
11:15 PM,32.0,30.2,93,30.09,10.0,South,3.5,-,N/A,,Mostly Cloudy,190,2012-10-07 03:15:00
11:35 PM,33.8,30.2,87,30.10,10.0,Calm,Calm,-,N/A,,Mostly Cloudy,0,2012-10-07 03:35:00
11:54 PM,33.8,32.0,93,30.10,1.2,WSW,4.6,-,N/A,Snow,Light Snow,250,2012-10-07 03:54:00